Tracking 20383 objects as of 23-Feb-2020
HD Live streaming from Space Station
objects crossing your sky now
Track the group of recently launched Starlink satellites

DELTA 1 R/B

Track DELTA 1 R/B now!
10-day predictions


NORAD ID: 515
Int'l Code: 1962-068B
Perigee: 1,331.1 km
Apogee: 7,420.9 km
Inclination: 47.5 °
Period: 184.8 minutes
Semi major axis: 10747 km
RCS: 0.4654 m2 (medium)
Launch date: December 13, 1962
Source: United States (US)
Launch site: AIR FORCE EASTERN TEST RANGE (AFETR)

Note: This is a ROCKET BODY
aabbcc
Your satellite tracking list
Your tracking list is empty




NASA's NSSDC Master Catalog

Two Line Element Set (TLE):
1   515U 62068B   20053.09422071 -.00000023  00000-0  00000+0 0  9993
2   515  47.5122  77.2542 2833251 354.7308   2.8590  7.79239489628249
Source of the keplerian elements: AFSPC